DW8622 Weather Reports


Display with metric or nautical units.
time (UTC)temp
F
wind
direction
speed
MPH
gust
MPH
rain 1hr
in
rain 24hr
in
rain mn
in
humidity
%
barometer
mb
20260505070506 51 9 6.0 11.0 0.00 0.00 0.00 91 1011.3
20260505070005 51 14 5.0 10.0 0.00 0.00 0.00 91 1011.3
20260505065507 51 15 4.0 10.0 0.00 0.00 0.00 92 1011.4
20260505065005 51 16 5.0 11.0 0.00 0.00 0.00 92 1011.5
20260505064505 51 20 6.0 11.0 0.00 0.00 0.00 92 1011.4
20260505063506 51 14 5.0 11.0 0.00 0.00 0.00 92 1011.5
20260505063006 51 13 4.0 10.0 0.00 0.00 0.00 92 1011.5
20260505062506 51 15 5.0 10.0 0.00 0.00 0.00 92 1011.6
20260505062006 51 16 5.0 10.0 0.00 0.00 0.00 92 1011.6
20260505061006 51 17 4.0 9.0 0.00 0.00 0.00 92 1011.6
20260505060505 51 18 5.0 9.0 0.00 0.00 0.00 92 1011.8
20260505060007 51 16 4.0 10.0 0.00 0.00 0.00 92 1011.8
20260505055505 51 13 5.0 10.0 0.00 0.00 0.00 92 1011.8
20260505055006 51 13 5.0 10.0 0.00 0.00 0.00 92 1011.7
20260505054505 51 16 4.0 9.0 0.00 0.00 0.00 92 1011.7
20260505053006 51 20 6.0 10.0 0.00 0.00 0.00 92 1011.7
20260505052505 51 22 5.0 10.0 0.00 0.00 0.00 92 1011.6
20260505052006 51 24 5.0 10.0 0.00 0.00 0.00 92 1011.5
20260505051505 51 18 5.0 11.0 0.00 0.00 0.00 92 1011.5
20260505051006 51 11 4.0 11.0 0.00 0.00 0.00 92 1011.4
20260505050505 51 8 3.0 9.0 0.00 0.00 0.00 92 1011.3
20260505041505 51 4 4.0 10.0 0.00 0.00 0.00 92 1011.2
20260505041007 51 7 4.0 10.0 0.00 0.00 0.00 92 1011.2
20260505040506 51 2 4.0 10.0 0.00 0.00 0.00 91 1011.2
20260505040006 51 358 3.0 8.0 0.00 0.00 0.00 91 1011.3
20260505035506 51 3 4.0 9.0 0.00 0.00 0.00 91 1011.3
20260505035005 51 1 3.0 9.0 0.00 0.00 0.00 91 1011.3
20260505033005 52 359 4.0 9.0 0.00 0.00 0.00 91 1011.4
20260505032505 52 347 4.0 10.0 0.00 0.00 0.00 90 1011.5
20260505032006 52 341 4.0 10.0 0.00 0.00 0.00 90 1011.5
20260505031505 52 341 4.0 12.0 0.00 0.00 0.00 90 1011.5
20260505030506 52 348 4.0 9.0 0.00 0.00 0.00 90 1011.5
20260505030006 52 355 3.0 8.0 0.00 0.00 0.00 90 1011.5
20260505025506 51 359 3.0 7.0 0.00 0.00 0.00 90 1011.5
20260505025006 52 357 2.0 6.0 0.00 0.00 0.00 90 1011.5
20260505024505 51 351 3.0 8.0 0.00 0.00 0.00 90 1011.5
20260505024005 51 348 3.0 11.0 0.00 0.00 0.00 90 1011.6
20260505023505 52 346 3.0 11.0 0.00 0.00 0.00 90 1011.5
20260505023005 52 344 3.0 9.0 0.00 0.00 0.00 90 1011.5
20260505022506 52 344 4.0 9.0 0.00 0.00 0.00 90 1011.6
20260505022006 52 347 4.0 9.0 0.00 0.00 0.00 90 1011.7
20260505021505 52 354 3.0 9.0 0.00 0.00 0.00 90 1011.7
20260505021006 52 349 3.0 10.0 0.00 0.00 0.00 90 1011.6
20260505020505 52 343 4.0 11.0 0.00 0.00 0.00 89 1011.6
20260505020005 52 343 5.0 11.0 0.00 0.00 0.00 89 1011.6
20260505015506 52 343 5.0 13.0 0.00 0.00 0.00 89 1011.6
20260505015005 52 339 6.0 13.0 0.00 0.00 0.00 89 1011.6
20260505014506 52 341 5.0 12.0 0.00 0.00 0.00 89 1011.6
20260505014006 52 349 5.0 12.0 0.00 0.00 0.00 89 1011.7
20260505013506 52 347 5.0 12.0 0.00 0.00 0.00 89 1011.6
20260505012506 52 348 4.0 10.0 0.00 0.00 0.00 90 1011.8
20260505011505 52 347 5.0 11.0 0.00 0.00 0.00 89 1011.8
20260505011005 53 342 4.0 10.0 0.00 0.00 0.00 90 1011.8
20260505010506 53 340 4.0 10.0 0.00 0.00 0.00 90 1011.9
20260505010005 53 340 4.0 10.0 0.00 0.00 0.00 89 1012.0
20260505005506 53 350 4.0 10.0 0.00 0.00 0.00 90 1012.0
20260505005006 53 347 4.0 18.0 0.00 0.00 0.00 89 1012.0
20260505004505 53 344 6.0 18.0 0.00 0.00 0.00 89 1012.0
20260505004006 53 344 6.0 13.0 0.00 0.00 0.00 89 1012.0
20260505003006 53 336 5.0 11.0 0.00 0.00 0.00 89 1012.1
20260505002005 54 342 4.0 11.0 0.00 0.00 0.00 89 1012.1
20260505001506 54 343 4.0 11.0 0.00 0.00 0.00 89 1012.1
20260505000506 54 336 5.0 12.0 0.00 0.00 0.00 89 1012.1
20260505000006 54 337 5.0 12.0 0.00 0.00 0.00 90 1012.2
20260504235505 54 337 5.0 11.0 0.00 0.00 0.00 90 1012.2
20260504234506 54 337 6.0 17.0 0.00 0.00 0.00 90 1012.2
20260504234006 54 335 6.0 17.0 0.00 0.00 0.00 90 1012.2
20260504233505 54 333 6.0 12.0 0.00 0.00 0.00 90 1012.3
20260504233006 54 329 7.0 12.0 0.00 0.00 0.00 90 1012.3
20260504232506 54 329 6.0 12.0 0.00 0.01 0.00 90 1012.4
20260504232005 54 329 4.0 13.0 0.00 0.01 0.00 90 1012.5
20260504231505 54 328 5.0 13.0 0.00 0.01 0.00 91 1012.4
20260504231005 54 329 5.0 12.0 0.00 0.01 0.00 91 1012.4
20260504230505 54 331 5.0 10.0 0.00 0.01 0.00 91 1012.5
20260504225505 55 336 3.0 10.0 0.00 0.01 0.00 91 1012.5
20260504225005 55 333 3.0 9.0 0.00 0.01 0.00 91 1012.5
20260504224505 55 329 4.0 11.0 0.00 0.01 0.00 91 1012.5
20260504224005 55 329 5.0 11.0 0.00 0.01 0.00 91 1012.6
20260504223506 55 330 5.0 10.0 0.00 0.01 0.00 91 1012.6
20260504223006 55 331 3.0 9.0 0.00 0.01 0.00 91 1012.6
20260504222006 55 340 1.0 9.0 0.00 0.01 0.00 91 1012.6
20260504221506 55 345 1.0 9.0 0.00 0.01 0.00 91 1012.7
20260504221006 55 346 2.0 7.0 0.00 0.01 0.00 90 1012.6
20260504220007 55 349 3.0 9.0 0.00 0.01 0.00 90 1012.7
20260504215506 56 349 4.0 9.0 0.00 0.01 0.01 90 1012.7
20260504215005 56 349 4.0 9.0 0.00 0.01 0.01 91 1012.7
20260504214006 56 337 5.0 11.0 0.00 0.01 0.01 90 1012.7
20260504213505 56 339 3.0 11.0 0.00 0.01 0.01 90 1012.8
20260504213006 56 345 1.0 10.0 0.00 0.01 0.01 90 1012.9
20260504212505 56 339 2.0 8.0 0.00 0.01 0.01 90 1012.9
20260504212006 56 336 3.0 10.0 0.00 0.01 0.01 90 1012.9
20260504211505 56 334 4.0 10.0 0.00 0.01 0.01 90 1013.0
20260504211006 56 339 3.0 10.0 0.00 0.01 0.01 90 1012.9
20260504210506 56 348 2.0 8.0 0.00 0.01 0.01 90 1013.0
20260504210005 56 343 3.0 9.0 0.00 0.01 0.01 90 1013.0
20260504204506 57 343 3.0 10.0 0.00 0.01 0.01 90 1012.9
20260504204008 57 344 3.0 9.0 0.00 0.01 0.01 90 1012.9
20260504203506 57 347 3.0 11.0 0.00 0.01 0.01 90 1012.9
20260504203005 57 350 4.0 11.0 0.00 0.01 0.01 90 1012.9
20260504202506 57 350 3.0 7.0 0.00 0.01 0.01 90 1012.8
20260504201506 57 343 4.0 10.0 0.00 0.01 0.01 90 1012.8
20260504201006 57 348 4.0 9.0 0.00 0.01 0.01 90 1012.8
20260504200505 57 350 4.0 9.0 0.00 0.01 0.01 90 1012.8
20260504200006 57 353 4.0 10.0 0.00 0.01 0.01 90 1012.7
20260504195507 57 356 4.0 10.0 0.00 0.01 0.01 90 1012.7
20260504194507 57 1 4.0 11.0 0.00 0.01 0.01 89 1012.7
20260504194005 57 7 3.0 11.0 0.00 0.01 0.01 89 1012.6
20260504193506 57 15 3.0 9.0 0.00 0.01 0.01 89 1012.6
20260504193005 58 18 4.0 9.0 0.00 0.01 0.01 90 1012.6
20260504192005 58 8 4.0 10.0 0.00 0.01 0.01 89 1012.5
20260504191506 58 11 3.0 10.0 0.00 0.01 0.01 89 1012.4
20260504191006 58 6 3.0 9.0 0.00 0.01 0.01 89 1012.4
20260504190506 58 359 3.0 13.0 0.00 0.01 0.01 89 1012.4
20260504190005 58 3 3.0 13.0 0.00 0.01 0.01 89 1012.3
20260504185506 58 3 4.0 10.0 0.00 0.01 0.01 89 1012.4
20260504185005 58 3 4.0 10.0 0.00 0.01 0.01 89 1012.4
20260504184506 58 5 4.0 9.0 0.00 0.01 0.01 89 1012.3
20260504184005 59 8 4.0 9.0 0.00 0.01 0.01 89 1012.3
20260504183506 59 11 4.0 9.0 0.00 0.01 0.01 89 1012.3
20260504183005 59 10 4.0 9.0 0.00 0.02 0.01 89 1012.2
20260504182506 59 1 3.0 9.0 0.00 0.02 0.01 89 1012.2
20260504181506 59 339 5.0 14.0 0.00 0.02 0.01 89 1012.2
20260504181006 60 337 3.0 14.0 0.00 0.02 0.01 89 1012.3
20260504180507 60 350 1.0 5.0 0.00 0.03 0.01 90 1012.3
20260504175506 60 359 3.0 12.0 0.00 0.04 0.01 89 1012.2
20260504175005 60 5 2.0 12.0 0.00 0.04 0.01 90 1012.3
20260504174506 60 354 2.0 9.0 0.00 0.04 0.01 90 1012.2
20260504173506 60 352 1.0 8.0 0.00 0.04 0.01 90 1012.2
20260504173006 61 345 1.0 8.0 0.00 0.04 0.01 91 1012.1
20260504172506 61 343 0.0 8.0 0.00 0.04 0.01 91 1012.2
20260504172006 61 342 0.0 5.0 0.00 0.04 0.01 91 1012.2
20260504171507 61 336 0.0 5.0 0.00 0.04 0.01 91 1012.2
20260504171006 61 342 0.0 4.0 0.00 0.04 0.01 91 1012.2
20260504170506 61 343 1.0 8.0 0.00 0.04 0.01 90 1012.1
20260504150505 55 0 0.0 0.0 0.00 0.05 0.01 97 1012.0
20260504141006 55 0 0.0 0.0 0.00 0.11 0.01 97 1012.4
20260504140506 55 0 0.0 0.0 0.00 0.11 0.01 97 1012.4
20260504130505 55 0 0.0 0.0 0.00 0.13 0.01 97 1012.6
20260504110506 55 0 0.0 0.0 0.00 0.18 0.01 97 1012.8
20260504100506 55 0 0.0 0.0 0.00 0.24 0.01 97 1013.0
20260504082007 55 0 0.0 0.0 0.00 0.31 0.01 97 1012.9
20260504081506 55 0 0.0 0.0 0.00 0.31 0.01 97 1012.8
20260504080506 55 0 0.0 0.0 0.00 0.31 0.01 97 1012.8